Year,Month,Day,Hour,Minute,Value (Times are PST for temperature in C)
2021,06,23,08,24,17.30
2021,06,23,08,25,17.30
2021,06,23,08,26,17.30
2021,06,23,08,27,17.20
2021,06,23,08,28,17.20
2021,06,23,08,29,17.20
2021,06,23,08,30,17.10
2021,06,23,08,31,17.10
2021,06,23,08,32,17.00
2021,06,23,08,33,17.00
2021,06,23,08,34,17.00
2021,06,23,08,35,17.00
2021,06,23,08,36,17.10
2021,06,23,08,37,17.20
2021,06,23,08,38,17.30
2021,06,23,08,39,17.40
2021,06,23,08,40,17.60
2021,06,23,08,41,17.70
2021,06,23,08,42,17.80
2021,06,23,08,43,17.90
2021,06,23,08,44,18.00
2021,06,23,08,45,18.10
2021,06,23,08,46,18.20
2021,06,23,08,47,18.20
2021,06,23,08,48,18.20
2021,06,23,08,49,18.30
2021,06,23,08,50,18.30
2021,06,23,08,51,18.40
2021,06,23,08,52,18.40
2021,06,23,08,53,18.40
2021,06,23,08,54,18.50
2021,06,23,08,55,18.50
2021,06,23,08,56,18.50
2021,06,23,08,57,18.50
2021,06,23,08,58,18.50
2021,06,23,08,59,18.50
2021,06,23,09,00,18.50
2021,06,23,09,01,18.50
2021,06,23,09,02,18.50
2021,06,23,09,03,18.50
2021,06,23,09,04,18.50
2021,06,23,09,05,18.60
2021,06,23,09,06,18.60
2021,06,23,09,07,18.70
2021,06,23,09,08,18.80
2021,06,23,09,09,18.80
2021,06,23,09,10,18.90
2021,06,23,09,11,18.90
2021,06,23,09,12,18.90
2021,06,23,09,13,18.90
2021,06,23,09,14,18.80
2021,06,23,09,15,18.70
2021,06,23,09,16,18.70
2021,06,23,09,17,18.60
2021,06,23,09,18,18.60
2021,06,23,09,19,18.60
2021,06,23,09,20,18.50
2021,06,23,09,21,18.50
2021,06,23,09,22,18.50
2021,06,23,09,23,18.40
2021,06,23,09,24,18.40
2021,06,23,09,25,18.40
2021,06,23,09,26,18.40
2021,06,23,09,27,18.40
2021,06,23,09,28,18.40
2021,06,23,09,29,18.40
2021,06,23,09,30,18.40
2021,06,23,09,31,18.40
2021,06,23,09,32,18.40
2021,06,23,09,33,18.30
2021,06,23,09,34,18.40
2021,06,23,09,35,18.30
2021,06,23,09,36,18.30
2021,06,23,09,37,18.30
2021,06,23,09,38,18.30
2021,06,23,09,39,18.30
2021,06,23,09,40,18.30
2021,06,23,09,41,18.40
2021,06,23,09,42,18.40
2021,06,23,09,43,18.50
2021,06,23,09,44,18.50
2021,06,23,09,45,18.50
2021,06,23,09,46,18.60
2021,06,23,09,47,18.70
2021,06,23,09,48,18.70
2021,06,23,09,49,18.80
2021,06,23,09,50,18.80
2021,06,23,09,51,18.80
2021,06,23,09,52,18.70
2021,06,23,09,53,18.70
2021,06,23,09,54,18.80
2021,06,23,09,55,18.80
2021,06,23,09,56,18.90
2021,06,23,09,57,18.90
2021,06,23,09,58,18.90
2021,06,23,09,59,19.00
2021,06,23,10,00,19.10
2021,06,23,10,01,19.10
2021,06,23,10,02,19.10
2021,06,23,10,03,19.10
2021,06,23,10,04,19.20
2021,06,23,10,05,19.30
2021,06,23,10,06,19.30
2021,06,23,10,07,19.30
2021,06,23,10,08,19.30
2021,06,23,10,09,19.40
2021,06,23,10,10,19.40
2021,06,23,10,11,19.40
2021,06,23,10,12,19.50
2021,06,23,10,13,19.50
2021,06,23,10,14,19.50
2021,06,23,10,15,19.50
2021,06,23,10,16,19.50
2021,06,23,10,17,19.60
2021,06,23,10,18,19.60
2021,06,23,10,19,19.50
2021,06,23,10,20,19.60
2021,06,23,10,21,19.60
2021,06,23,10,22,19.70
2021,06,23,10,23,19.80
2021,06,23,10,24,19.80
2021,06,23,10,25,19.80
2021,06,23,10,26,19.80
2021,06,23,10,27,19.80
2021,06,23,10,28,19.90
2021,06,23,10,29,19.90
2021,06,23,10,30,19.90
2021,06,23,10,31,19.90
2021,06,23,10,32,19.70
2021,06,23,10,33,19.60
2021,06,23,10,34,19.40
2021,06,23,10,35,19.20
2021,06,23,10,36,19.10
2021,06,23,10,37,18.90
2021,06,23,10,38,18.80
2021,06,23,10,39,18.80
2021,06,23,10,40,18.80
2021,06,23,10,41,18.80
2021,06,23,10,42,18.70
2021,06,23,10,43,18.60
2021,06,23,10,44,18.60
2021,06,23,10,45,18.50
2021,06,23,10,46,18.40
2021,06,23,10,47,18.30
2021,06,23,10,48,18.20
2021,06,23,10,49,18.20
2021,06,23,10,50,18.30
2021,06,23,10,51,18.30
2021,06,23,10,52,18.30
2021,06,23,10,53,18.20
2021,06,23,10,54,18.20
2021,06,23,10,55,18.10
2021,06,23,10,56,18.00
2021,06,23,10,57,18.00
2021,06,23,10,58,18.10
2021,06,23,10,59,18.20
2021,06,23,11,00,18.30
2021,06,23,11,01,18.40
2021,06,23,11,02,18.40
2021,06,23,11,03,18.50
2021,06,23,11,04,18.50
2021,06,23,11,05,18.50
2021,06,23,11,06,18.50
2021,06,23,11,07,18.60
2021,06,23,11,08,18.70
2021,06,23,11,09,18.80
2021,06,23,11,10,18.90
2021,06,23,11,11,19.00
2021,06,23,11,12,19.10
2021,06,23,11,13,19.10
2021,06,23,11,14,19.10
2021,06,23,11,15,19.20
2021,06,23,11,16,19.20
2021,06,23,11,17,19.30
2021,06,23,11,18,19.40
2021,06,23,11,19,19.60
2021,06,23,11,20,19.70
2021,06,23,11,21,19.70
2021,06,23,11,22,19.70
2021,06,23,11,23,19.70
2021,06,23,11,24,19.70
2021,06,23,11,25,19.70
2021,06,23,11,26,19.70
2021,06,23,11,27,19.60
2021,06,23,11,28,19.60
2021,06,23,11,29,19.70
2021,06,23,11,30,19.80
2021,06,23,11,31,19.80
2021,06,23,11,32,19.90
2021,06,23,11,33,19.90
2021,06,23,11,34,20.00
2021,06,23,11,35,20.10
2021,06,23,11,36,20.00
2021,06,23,11,37,19.90
2021,06,23,11,38,19.90
2021,06,23,11,39,19.90
2021,06,23,11,40,19.70
2021,06,23,11,41,19.50
2021,06,23,11,42,19.40
2021,06,23,11,43,19.30
2021,06,23,11,44,19.10
2021,06,23,11,45,19.10
2021,06,23,11,46,19.10
2021,06,23,11,47,19.10
2021,06,23,11,48,19.00
2021,06,23,11,49,19.10
2021,06,23,11,50,19.10
2021,06,23,11,51,19.10
2021,06,23,11,52,19.10
2021,06,23,11,53,19.10
2021,06,23,11,54,19.10
2021,06,23,11,55,19.10
2021,06,23,11,56,19.10
2021,06,23,11,57,19.10
2021,06,23,11,58,18.90
2021,06,23,11,59,18.90
2021,06,23,12,00,18.90
2021,06,23,12,01,18.90
2021,06,23,12,02,18.90
2021,06,23,12,03,18.80
2021,06,23,12,04,18.80
2021,06,23,12,05,18.80
2021,06,23,12,06,18.70
2021,06,23,12,07,18.70
2021,06,23,12,08,18.70
2021,06,23,12,09,18.80
2021,06,23,12,10,18.90
2021,06,23,12,11,19.00
2021,06,23,12,12,19.10
2021,06,23,12,13,19.00
2021,06,23,12,14,18.80
2021,06,23,12,15,18.70
2021,06,23,12,16,18.60
2021,06,23,12,17,18.60
2021,06,23,12,18,18.50
2021,06,23,12,19,18.50
2021,06,23,12,20,18.50
2021,06,23,12,21,18.40
2021,06,23,12,22,18.30
2021,06,23,12,23,18.20
2021,06,23,12,24,18.20
2021,06,23,12,25,18.30
2021,06,23,12,26,18.30
2021,06,23,12,27,18.30
2021,06,23,12,28,18.20
2021,06,23,12,29,18.20
2021,06,23,12,30,18.30
2021,06,23,12,31,18.50
2021,06,23,12,32,18.60
2021,06,23,12,33,18.50
2021,06,23,12,34,18.40
2021,06,23,12,35,18.30
2021,06,23,12,36,18.30
2021,06,23,12,37,18.30
2021,06,23,12,38,18.40
2021,06,23,12,39,18.40
2021,06,23,12,40,18.30
2021,06,23,12,41,18.30
2021,06,23,12,42,18.40
2021,06,23,12,43,18.40
2021,06,23,12,44,18.30
2021,06,23,12,45,18.20
2021,06,23,12,46,18.20
2021,06,23,12,47,18.10
2021,06,23,12,48,18.10
2021,06,23,12,49,18.20
2021,06,23,12,50,18.30
2021,06,23,12,51,18.30
2021,06,23,12,52,18.30
2021,06,23,12,53,18.30
2021,06,23,12,54,18.30
2021,06,23,12,55,18.40
2021,06,23,12,56,18.50
2021,06,23,12,57,18.50
2021,06,23,12,58,18.60
2021,06,23,12,59,18.70
2021,06,23,13,00,18.90
2021,06,23,13,01,18.80
2021,06,23,13,02,18.70
2021,06,23,13,03,18.70
2021,06,23,13,04,18.60
2021,06,23,13,05,18.60
2021,06,23,13,06,18.50
2021,06,23,13,07,18.60
2021,06,23,13,08,18.60
2021,06,23,13,09,18.60
2021,06,23,13,10,18.70
2021,06,23,13,11,18.70
2021,06,23,13,12,18.80
2021,06,23,13,13,18.80
2021,06,23,13,14,18.70
2021,06,23,13,15,18.70
2021,06,23,13,16,18.70
2021,06,23,13,17,18.70
2021,06,23,13,18,18.60
2021,06,23,13,19,18.50
2021,06,23,13,20,18.60
2021,06,23,13,21,18.60
2021,06,23,13,22,18.50
2021,06,23,13,23,18.50
2021,06,23,13,24,18.60
2021,06,23,13,25,18.70
2021,06,23,13,26,18.70
2021,06,23,13,27,18.80
2021,06,23,13,28,18.80
2021,06,23,13,29,18.80
2021,06,23,13,30,18.90
2021,06,23,13,31,19.00
2021,06,23,13,32,19.00
2021,06,23,13,33,18.90
2021,06,23,13,34,18.90
2021,06,23,13,35,18.80
2021,06,23,13,36,18.70
2021,06,23,13,37,18.70
2021,06,23,13,38,18.60
2021,06,23,13,39,18.50
2021,06,23,13,40,18.50
2021,06,23,13,41,18.40
2021,06,23,13,42,18.40
2021,06,23,13,43,18.40
2021,06,23,13,44,18.30
2021,06,23,13,45,18.30
2021,06,23,13,46,18.20
2021,06,23,13,47,18.10
2021,06,23,13,48,17.90
2021,06,23,13,49,17.90
2021,06,23,13,50,18.00
2021,06,23,13,51,18.10
2021,06,23,13,52,18.20
2021,06,23,13,53,18.50
2021,06,23,13,54,18.60
2021,06,23,13,55,18.70
2021,06,23,13,56,18.70
2021,06,23,13,57,18.70
2021,06,23,13,58,18.70
2021,06,23,13,59,18.70
2021,06,23,14,00,18.70
2021,06,23,14,01,18.60
2021,06,23,14,02,18.60
2021,06,23,14,03,18.60
2021,06,23,14,04,18.60
2021,06,23,14,05,18.60
2021,06,23,14,06,18.60
2021,06,23,14,07,18.70
2021,06,23,14,08,18.60
2021,06,23,14,09,18.60
2021,06,23,14,10,18.60
2021,06,23,14,11,18.70
2021,06,23,14,12,18.80
2021,06,23,14,13,18.90
2021,06,23,14,14,18.80
2021,06,23,14,15,18.80
2021,06,23,14,16,18.80
2021,06,23,14,17,18.70
2021,06,23,14,18,18.80
2021,06,23,14,19,18.90
2021,06,23,14,20,18.90
2021,06,23,14,21,18.90
2021,06,23,14,22,18.90
2021,06,23,14,23,18.90
2021,06,23,14,24,18.90
2021,06,23,14,25,18.90
2021,06,23,14,26,18.90
2021,06,23,14,27,18.90
2021,06,23,14,28,18.90
2021,06,23,14,29,18.90
2021,06,23,14,30,18.80
2021,06,23,14,31,18.80
2021,06,23,14,32,18.90
2021,06,23,14,33,18.90
2021,06,23,14,34,18.90
2021,06,23,14,35,18.90
2021,06,23,14,36,18.90
2021,06,23,14,37,19.00
2021,06,23,14,38,19.10
2021,06,23,14,39,19.30
2021,06,23,14,40,19.40
2021,06,23,14,41,19.50
2021,06,23,14,42,19.50
2021,06,23,14,43,19.50
2021,06,23,14,44,19.60
2021,06,23,14,45,19.70
2021,06,23,14,46,19.70
2021,06,23,14,47,19.60
2021,06,23,14,48,19.40
2021,06,23,14,49,19.30
2021,06,23,14,50,19.20
2021,06,23,14,51,19.20
2021,06,23,14,52,19.20
2021,06,23,14,53,19.10
2021,06,23,14,54,19.10
2021,06,23,14,55,19.10
2021,06,23,14,56,19.10
2021,06,23,14,57,19.20
2021,06,23,14,58,19.30
2021,06,23,14,59,19.50
2021,06,23,15,00,19.50
2021,06,23,15,01,19.60
2021,06,23,15,02,19.60
2021,06,23,15,03,19.70
2021,06,23,15,04,19.70
2021,06,23,15,05,19.90
2021,06,23,15,06,19.90
2021,06,23,15,07,19.90
2021,06,23,15,08,19.90
2021,06,23,15,09,19.90
2021,06,23,15,10,20.00
2021,06,23,15,11,20.10
2021,06,23,15,12,20.10
2021,06,23,15,13,20.20
2021,06,23,15,14,20.20
2021,06,23,15,15,20.20
2021,06,23,15,16,20.20
2021,06,23,15,17,20.20
2021,06,23,15,18,20.20
2021,06,23,15,19,20.20
2021,06,23,15,20,20.20
2021,06,23,15,21,20.10
2021,06,23,15,22,19.90
2021,06,23,15,23,19.90
2021,06,23,15,24,19.90
2021,06,23,15,25,19.80
2021,06,23,15,26,19.80
2021,06,23,15,27,19.80
2021,06,23,15,28,19.90
2021,06,23,15,29,20.00
2021,06,23,15,30,20.10
2021,06,23,15,31,20.10
2021,06,23,15,32,20.10
2021,06,23,15,33,20.20
2021,06,23,15,34,20.20
2021,06,23,15,35,20.20
2021,06,23,15,36,20.20
2021,06,23,15,37,20.20
2021,06,23,15,38,20.40
2021,06,23,15,39,20.50
2021,06,23,15,40,20.50
2021,06,23,15,41,20.60
2021,06,23,15,42,20.60
2021,06,23,15,43,20.60
2021,06,23,15,44,20.60
2021,06,23,15,45,20.70
2021,06,23,15,46,20.70
2021,06,23,15,47,20.90
2021,06,23,15,48,21.00
2021,06,23,15,49,21.10
2021,06,23,15,50,21.20
2021,06,23,15,51,21.20
2021,06,23,15,52,21.20
2021,06,23,15,53,21.20
2021,06,23,15,54,21.20
2021,06,23,15,55,21.10
2021,06,23,15,56,21.10
2021,06,23,15,57,21.10
2021,06,23,15,58,21.10
2021,06,23,15,59,21.10
2021,06,23,16,00,21.00
2021,06,23,16,01,20.90
2021,06,23,16,02,20.90
2021,06,23,16,03,20.90
2021,06,23,16,04,20.90
2021,06,23,16,05,20.90
2021,06,23,16,06,21.00
2021,06,23,16,07,21.00
2021,06,23,16,08,21.10
2021,06,23,16,09,21.10
2021,06,23,16,10,21.10
2021,06,23,16,11,21.30
2021,06,23,16,12,21.30
2021,06,23,16,13,21.30
2021,06,23,16,14,21.30
2021,06,23,16,15,21.30
2021,06,23,16,16,21.30
2021,06,23,16,17,21.20
2021,06,23,16,18,21.20
2021,06,23,16,19,21.20
2021,06,23,16,20,21.30
2021,06,23,16,21,21.30
2021,06,23,16,22,21.40
2021,06,23,16,23,21.40
2021,06,23,16,24,21.60
2021,06,23,16,25,21.60
2021,06,23,16,26,21.60
2021,06,23,16,27,21.80
2021,06,23,16,28,22.00
2021,06,23,16,29,22.20
2021,06,23,16,30,22.30
2021,06,23,16,31,22.30
2021,06,23,16,32,22.40
2021,06,23,16,33,22.40
2021,06,23,16,34,22.50
2021,06,23,16,35,22.50
2021,06,23,16,36,22.60
2021,06,23,16,37,22.50
2021,06,23,16,38,22.60
2021,06,23,16,39,22.60
2021,06,23,16,40,22.50
2021,06,23,16,41,22.50
2021,06,23,16,42,22.50
2021,06,23,16,43,22.40
2021,06,23,16,44,22.30
2021,06,23,16,45,22.30
2021,06,23,16,46,22.30
2021,06,23,16,47,22.30
2021,06,23,16,48,22.30
2021,06,23,16,49,22.30
2021,06,23,16,50,22.30
2021,06,23,16,51,22.40
2021,06,23,16,52,22.50
2021,06,23,16,53,22.60
2021,06,23,16,54,22.60
2021,06,23,16,55,22.60
2021,06,23,16,56,22.60
2021,06,23,16,57,22.60
2021,06,23,16,58,22.60
2021,06,23,16,59,22.70
2021,06,23,17,00,22.60
2021,06,23,17,01,22.60
2021,06,23,17,02,22.60
2021,06,23,17,03,22.70
2021,06,23,17,04,22.70
2021,06,23,17,05,22.80
2021,06,23,17,06,22.80
2021,06,23,17,07,22.80
2021,06,23,17,08,22.80
2021,06,23,17,09,22.70
2021,06,23,17,10,22.60
2021,06,23,17,11,22.60
2021,06,23,17,12,22.50
2021,06,23,17,13,22.50
2021,06,23,17,14,22.60
2021,06,23,17,15,22.60
2021,06,23,17,16,22.60
2021,06,23,17,17,22.70
2021,06,23,17,18,22.60
2021,06,23,17,19,22.60
2021,06,23,17,20,22.60
2021,06,23,17,21,22.60
2021,06,23,17,22,22.60
2021,06,23,17,23,22.60
2021,06,23,17,24,22.60
2021,06,23,17,25,22.70
2021,06,23,17,26,22.70
2021,06,23,17,27,22.80
2021,06,23,17,28,22.80
2021,06,23,17,29,22.80
2021,06,23,17,30,22.80
2021,06,23,17,31,22.70
2021,06,23,17,32,22.70
2021,06,23,17,33,22.60
2021,06,23,17,34,22.60
2021,06,23,17,35,22.60
2021,06,23,17,36,22.50
2021,06,23,17,37,22.50
2021,06,23,17,38,22.50
2021,06,23,17,39,22.50
2021,06,23,17,40,22.50
2021,06,23,17,41,22.60
2021,06,23,17,42,22.60
2021,06,23,17,43,22.60
2021,06,23,17,44,22.50
2021,06,23,17,45,22.40
2021,06,23,17,46,22.30
2021,06,23,17,47,22.20
2021,06,23,17,48,22.20
2021,06,23,17,49,22.10
2021,06,23,17,50,22.00
2021,06,23,17,51,22.00
2021,06,23,17,52,22.00
2021,06,23,17,53,22.00
2021,06,23,17,54,22.00
2021,06,23,17,55,22.00
2021,06,23,17,56,22.00
2021,06,23,17,57,22.00
2021,06,23,17,58,22.00
2021,06,23,17,59,22.00
2021,06,23,18,00,22.00
2021,06,23,18,01,22.00
2021,06,23,18,02,22.10
2021,06,23,18,03,22.10
2021,06,23,18,04,22.20
2021,06,23,18,05,22.20
2021,06,23,18,06,22.20
2021,06,23,18,07,22.30
2021,06,23,18,08,22.30
2021,06,23,18,09,22.40
2021,06,23,18,10,22.50
2021,06,23,18,11,22.60
2021,06,23,18,12,22.80
2021,06,23,18,13,22.90
2021,06,23,18,14,22.90
2021,06,23,18,15,22.90
2021,06,23,18,16,23.00
2021,06,23,18,17,23.10
2021,06,23,18,18,23.10
2021,06,23,18,19,23.10
2021,06,23,18,20,23.20
2021,06,23,18,21,23.20
2021,06,23,18,22,23.10
2021,06,23,18,23,23.10
2021,06,23,18,24,23.10
2021,06,23,18,25,23.10
2021,06,23,18,26,23.10
2021,06,23,18,27,23.10
2021,06,23,18,28,23.10
2021,06,23,18,29,23.10
2021,06,23,18,30,23.10
2021,06,23,18,31,23.10
2021,06,23,18,32,23.10
2021,06,23,18,33,23.10
2021,06,23,18,34,23.00
2021,06,23,18,35,22.90
2021,06,23,18,36,22.90
2021,06,23,18,37,22.90
2021,06,23,18,38,22.90
2021,06,23,18,39,22.90
2021,06,23,18,40,22.90
2021,06,23,18,41,22.90
2021,06,23,18,42,22.90
2021,06,23,18,43,22.90
2021,06,23,18,44,22.90
2021,06,23,18,45,22.90
2021,06,23,18,46,22.90
2021,06,23,18,47,22.90
2021,06,23,18,48,22.90
2021,06,23,18,49,22.90
2021,06,23,18,50,22.90
2021,06,23,18,51,22.90
2021,06,23,18,52,22.90
2021,06,23,18,53,22.90
2021,06,23,18,54,22.90
2021,06,23,18,55,22.90
2021,06,23,18,56,22.90
2021,06,23,18,57,22.90
2021,06,23,18,58,22.90
2021,06,23,18,59,22.80
2021,06,23,19,00,22.80
2021,06,23,19,01,22.80
2021,06,23,19,02,22.70
2021,06,23,19,03,22.70
2021,06,23,19,04,22.70
2021,06,23,19,05,22.70
2021,06,23,19,06,22.70
2021,06,23,19,07,22.70
2021,06,23,19,08,22.70
2021,06,23,19,09,22.70
2021,06,23,19,10,22.70
2021,06,23,19,11,22.70
2021,06,23,19,12,22.70
